星链-32119 (STARLINK-32119 )

导读

STARLINK-32119是美国SpaceX星链互联网卫星星座的一员,于2024年6月19日发射入轨。星链计划旨在搭建全球卫星互联网,为偏远地区等提供宽带服务。该卫星延续星链设计,在近地轨道运行,助力星座扩容,进一步完善全球覆盖网络,推动卫星互联网服务的普及与发展。

基本信息
目录编号:
60072
目录名称:
STARLINK-32119
国际标识:
2024-113P
轨道中心:
EARTH
卫星名称:
星链-32119
卫星全名:
星链-32119 (STARLINK-32119 )
卫星状态:
已陨落 最后检测时间 2024-07-08
发射日期:
2024-06-19 UTC
国别 :
美国 (US)
星等 :
--
轨道信息
数据来源 国际轨道数据
星历时间: 2024-07-08T11:28:20+0800
轨道信息已过期706天
半长轴: 6533.371km
偏心率: 0.0015137
轨道倾角: 53.175°
近地点辐角 320.083°
升交点赤经 315.852°
平近点角 164.402°
近地点: 145.346km
远地点: 165.126km
周期: 87.592分钟
每日圈数: 16.43981
详细信息
固有亮度:
5
最大亮度:
1.5
卫星平台:
Starlink v2.0 mini
覆盖范围:
全球
运营商:
太空探索技术公司
运营商所在国:
美国
制造商(研发单位):
太空探索技术公司
制造商所在国:
美国
使用方式:
暂无
卫星简介
星链(Starlink)计划是由太空探索技术公司(SpaceX)提出的一个巨型低轨卫星互联网星座项目,计划在2019年至2024年间在太空搭建由约1.2万颗卫星组成的“星链”网络,其中1584颗将部署在地球上空550千米处的近地轨道,并从2020年开始工作。该卫星仍在工作。